Weather History for KDLN - August, 2013

Change the Weather History Date:

Tuesday, August 6, 2013

  Actual Average Record
Temperature  
Mean Temperature 65 °F 66 °F  
Max Temperature 84 °F 83 °F 97 °F (1949)
Min Temperature 46 °F 49 °F 41 °F (1950)
Degree Days  
Heating Degree Days 0    
Month to date heating degree days 2  
Since 1 June heating degree days 190  
Since 1 July heating degree days 2  
Cooling Degree Days 0    
Month to date cooling degree days 5  
Year to date cooling degree days 164  
Since 1 June cooling degree days 161  
Growing Degree Days 15 (Base 50)    
Moisture  
Dew Point 37 °F    
Average Humidity 41    
Maximum Humidity 66    
Minimum Humidity 15    
Precipitation  
Precipitation 0.00 in 0.03 in 0.26 in (1974)
Month to date precipitation 0.00 0.19  
Year to date precipitation 5.42 7.44  
Snow  
Snow 0.00 in - - ()
Snow Depth 0.00 in    
Sea Level Pressure  
Sea Level Pressure 29.94 in    
Wind  
Wind Speed 6 mph (ESE)    
Max Wind Speed 12 mph    
Max Gust Speed 15 mph    
Visibility 10 miles    
Events      
T = Trace of Precipitation, MM = Missing Value Source: NWS Daily Summary

Daily Weather History Graph

Daily Weather History Graph

Search for Another Location

Airport or City:

Trip Planner

Search our weather history database for the weather conditions in past years. The results will help you decide how hot, cold, wet, or windy it might be!

Date:

Astronomy

Aug. 06, 2013 Rise Set
Actual Time 6:21 AM MDT 8:50 PM MDT
Civil Twilight 5:47 AM MDT 9:23 PM MDT
Nautical Twilight 5:06 AM MDT 10:04 PM MDT
Astronomical Twilight 4:18 AM MDT 10:51 PM MDT
Moon 6:18 AM MDT (8/6) 8:22 PM MDT (8/6)
Length of Visible Light 15h 35m
Length of Day
14h 29m
Waning Crescent, 0% of the Moon is Illuminated
Aug 6
Waning Crescent
Aug 6
New
Aug 14
First Quarter
Aug 20
Full
Aug 28
Last Quarter

Hourly Weather History & Observations

Time (MDT) Temp. Dew Point Humidity Pressure Visibility Wind Dir Wind Speed Gust Speed Precip Events Conditions
12:53 AM 57.9 °F 37.9 °F 47% 29.91 in 10.0 mi SE 4.6 mph - N/A   Clear
1:53 AM 57.9 °F 37.0 °F 46% 29.90 in 10.0 mi SSE 3.5 mph - N/A   Clear
2:53 AM 57.9 °F 36.0 °F 44% 29.92 in 10.0 mi South 8.1 mph - N/A   Partly Cloudy
3:53 AM 53.1 °F 37.0 °F 55% 29.93 in 10.0 mi ESE 6.9 mph - N/A   Clear
4:53 AM 55.9 °F 36.0 °F 47% 29.93 in 10.0 mi SSE 4.6 mph - N/A   Clear
5:53 AM 52.0 °F 37.0 °F 57% 29.95 in 10.0 mi SSW 4.6 mph - N/A   Partly Cloudy
6:53 AM 48.0 °F 37.0 °F 66% 29.99 in 10.0 mi SE 4.6 mph - N/A   Clear
7:53 AM 52.0 °F 39.9 °F 63% 30.00 in 10.0 mi SSW 8.1 mph - N/A   Clear
8:53 AM 60.1 °F 43.0 °F 53% 30.00 in 10.0 mi SW 5.8 mph - N/A   Clear
9:53 AM 64.9 °F 44.1 °F 47% 30.00 in 10.0 mi WSW 4.6 mph - N/A   Clear
10:53 AM 73.9 °F 36.0 °F 25% 29.97 in 10.0 mi Variable 3.5 mph - N/A   Clear
11:53 AM 75.0 °F 35.1 °F 23% 29.97 in 10.0 mi West 3.5 mph - N/A   Clear
12:53 PM 78.1 °F 32.0 °F 19% 29.97 in 10.0 mi Calm Calm - N/A   Clear
1:53 PM 79.0 °F 33.1 °F 19% 29.95 in 10.0 mi NNE 8.1 mph - N/A   Clear
2:53 PM 81.0 °F 30.0 °F 16% 29.93 in 10.0 mi North 5.8 mph - N/A   Clear
3:53 PM 81.0 °F 30.0 °F 16% 29.94 in 10.0 mi NNW 5.8 mph - N/A   Clear
4:53 PM 82.9 °F 30.0 °F 15% 29.91 in 10.0 mi Variable 3.5 mph - N/A   Clear
5:53 PM 82.9 °F 34.0 °F 17% 29.91 in 10.0 mi NE 6.9 mph - N/A   Clear
6:53 PM 82.0 °F 33.1 °F 17% 29.91 in 10.0 mi NNE 6.9 mph - N/A   Clear
7:53 PM 75.0 °F 45.0 °F 34% 29.92 in 10.0 mi NE 8.1 mph - N/A   Clear
8:53 PM 66.9 °F 44.1 °F 44% 29.92 in 10.0 mi NE 9.2 mph - N/A   Clear
9:53 PM 63.0 °F 41.0 °F 45% 29.93 in 10.0 mi ENE 8.1 mph - N/A   Clear
10:53 PM 62.1 °F 39.0 °F 43% 29.93 in 10.0 mi East 5.8 mph - N/A   Clear
11:53 PM 57.9 °F 37.0 °F 46% 29.95 in 10.0 mi South 4.6 mph - N/A   Clear